Location: Asheville, NC
(35.6000°N, 82.5500°W)
Time: 02:35:19
(UTC-04:00)

CAS-4B - Pass Details

Date: 17 March 2018
Orbit: 533 x 544 km, 43.0° (Epoch: 20 June)

Event Time Altitude Azimuth Distance (km) Brightness Sun altitude
Rises 07:08:14 0° 217° (SW) 2,676 ? -6.9°
Reaches altitude 10° 07:10:37 10° 208° (SSW) 1,790 ? -6.4°
Maximum altitude 07:14:18 33° 144° (SE) 926 ? -5.7°
Drops below altitude 10° 07:18:01 10° 79° (E) 1,800 ? -4.9°
Sets 07:20:24 0° 70° (ENE) 2,695 ? -4.4°
